CZ-6A DEB, 56586

Orbit data source: Space-Track

CZ-6A DEB, 56586 is space debris in SSO originally from a launch on Fri, 11 Nov 2022 UTC launched from the Taiyaun Space Center, China (TSC). Debris objects in space refer to the collection of defunct objects orbiting the Earth. Examples of debris include non-operational satellites, rocket bodies, and fragments generated from explosions, collisions, or faulty payload assembly.

Loading next visibility...
Identifier
56586, 2022-151ADJ
Orbit
SSO
Country
Flag of CNCN / PRC
Related business
Manufacturer
SAST
Mission
Spacecraft
Bus & Motor
Unknown
Mass
Unknown
Launch date (UTC)
2022-11-11 (3 years ago)
Launch vehicle
Unknown
Launch site
Taiyaun Space Center, China (TSC)
Object type
Payload
Rocket body
Debris
Shape & HBR
Unknown shape, 0.1 m
Radar Cross Section
Small (<0.1 m²)

Expand to show TLE details & history
Last TLE update: 3 days ago

TLE from 3 days ago
0 CZ-6A DEB
1 56586U 22151ADJ 25349.59461800  .00012671  00000-0  19086-2 0  9990
2 56586  98.6490  41.6465 0059232 142.7471 217.7866 14.73356572151648
Epoch: 2025-12-15T14:16Z
TLE epoch observation values (Epoch: 2025-12-15T14:16:14.995Z)
Latitude
-0.00004°
Longitude
103.09309°
Altitude
686.362 km
Speed
7.496 km/s
True Right ascension
02h 46m 35s
True Declination
0° 00' 00"
Sunlit
Object was in full shadow at epoch
Visualization orbit readout
Latitude
Unknown
Longitude
Unknown
Altitude
Unknown
Speed
Unknown
Apparent Right ascension
Unknown
Apparent Declination
Unknown
Sunlit
N/A
Visualization observer readout
Local Sidereal Time
02:07:49
Azimuth
Unknown
Elevation
Unknown
Doppler factor
Unknown
Orbital elements
Apogee altitude
689.072 km
Perigee altitude
605.844 km
Semi-major axis
7,025.595 km
Eccentricity
0.00592
Inclination
98.649°
RAAN
41.6465°
Arg. of periapsis
142.7471°
True anomaly
217.37314°
Mean anomaly
217.7866°
Eccentric anomaly
217.57963°
Mean motion
3.68569 °/min
Orbital period
97.68 mins
BSTAR
0.0019086
Loading maneuver chart data...
Computing Atmospheric mass density...
Loading historical data...
Loading historical data...
Loading historical data...
Loading historical data...
Loading historical data...
Loading historical data...
Loading historical data...

Documentation

Showing up to 5 results
|